{"data":{"norad_id":64954,"intl_designator":"2025-158Y","name":"STARLINK-34761","alt_names":[],"object_type":"PAYLOAD","status":"ACTIVE","operator":null,"country":"US","launch_date":"2025-07-27","launch_site_code":"AFWTR","launch_vehicle":null,"mission":null,"orbit_class":"UNKNOWN","rcs_meters":null,"size_class":null,"mass_kg":null,"dimensions":null,"purposes":["comms"],"wikipedia_slug":null,"has_3d_model":false,"image_url":null,"decayed_at":null,"tle_current":{"epoch":"2026-05-25T03:05:10.653792Z","epoch_age_seconds":60625,"freshness":"FRESH","line1":"1 64954U 25158Y   26145.12859553  .00002125  00000+0  15130-3 0  9997","line2":"2 64954  97.4495   8.9911 0002293  78.6397 281.5088 15.05656188 46852","mean_motion":15.05656188,"eccentricity":0.0002293,"inclination_deg":97.4495,"raan_deg":8.9911,"arg_perigee_deg":78.6397,"mean_anomaly_deg":281.5088,"bstar":0.0001513,"rev_number":4685,"period_min":95.639363851902,"perigee_km":547.90366765823,"apogee_km":551.08067839698,"semimajor_km":6927.6291730276,"source":"CELESTRAK","updated_at":"2026-05-25T13:38:20.636129Z"}}}